OneWeb SL0698

operational
NORAD ID: 61604 Int'l Des: 2024-188 Owner: ONEWEBE Country: UK Constellation: oneweb
LEOCIRCULARPOLARONEWEB_TYPE

关于 OneWeb SL0698

正在加载描述...

实时位置

正在加载3D地球...

即将过境

高度历史

Altitude vs Time

uPlot chart will show altitude changes over time

两行轨道根数

1 61604U 24188L 26034.30181490 -.00000373 00000-0 -10888-2 0 9993
2 61604 87.8818 47.7271 0001070 129.0708 231.0515 13.11417831 66922
Epoch: Feb 3, 2026 • Age: 7 hours

当前状态

高度 1242.5 km
速度 7.23 km/s
星下点 -62.48°S, 56.09°E
发射日期 Oct 20, 2024
运行时间 1.2 years
类型 internet

技术详情

分类 Payload
质量 148.00 kg
干质量 140.00 kg
总质量 148.00 kg
长度 1.30 m
直径 1.00 m
跨度 5.00 m
形状 Trapezoid+2 pan
制造商 ONEWUS
平台类型 ARROW
阶段状态 In Orbit
所有者/国家 ONEWEBE/UK

大型星座

Loading constellations...